owner,sensor,date,latitude,longitude,vertical_datum,mass_concentration_of_oxygen_in_sea_water,qcFlag 
SCCF RECON,ioos:station:SCCF:13:1,2013-09-01T00:00:00Z,26.5255,-82.0032,2.22,5.3,1111122 
SCCF RECON,ioos:station:SCCF:13:1,2013-09-01T01:00:00Z,26.5255,-82.0032,2.325,5.02,1111122 
SCCF RECON,ioos:station:SCCF:13:1,2013-09-01T02:00:00Z,26.5255,-82.0032,2.4,4.49,1111122 
SCCF RECON,ioos:station:SCCF:13:1,2013-09-01T03:00:00Z,26.5255,-82.0032,2.44,4.42,1111122 
SCCF RECON,ioos:station:SCCF:13:1,2013-09-01T04:00:00Z,26.5255,-82.0032,2.48,4.67,1111122 
SCCF RECON,ioos:station:SCCF:13:1,2013-09-01T05:00:00Z,26.5255,-82.0032,2.5,5.34,1111122 
SCCF RECON,ioos:station:SCCF:13:1,2013-09-01T06:00:00Z,26.5255,-82.0032,2.489,5.53,1111122 
SCCF RECON,ioos:station:SCCF:13:1,2013-09-01T07:00:00Z,26.5255,-82.0032,2.43,5.61,1111122 
SCCF RECON,ioos:station:SCCF:13:1,2013-09-01T08:00:00Z,26.5255,-82.0032,2.388,5.1,1111122 
SCCF RECON,ioos:station:SCCF:13:1,2013-09-01T09:00:00Z,26.5255,-82.0032,2.34,4.85,1111122 
SCCF RECON,ioos:station:SCCF:13:1,2013-09-01T10:00:00Z,26.5255,-82.0032,2.35,4.7,1111122 
SCCF RECON,ioos:station:SCCF:13:1,2013-09-01T11:00:00Z,26.5255,-82.0032,2.39,4.0,1111122 
SCCF RECON,ioos:station:SCCF:13:1,2013-09-01T12:00:00Z,26.5255,-82.0032,2.47,4.61,1111122 
SCCF RECON,ioos:station:SCCF:13:1,2013-09-01T13:00:00Z,26.5255,-82.0032,2.54,4.81,1111122 
SCCF RECON,ioos:station:SCCF:13:1,2013-09-01T14:00:00Z,26.5255,-82.0032,2.6,5.18,1111122 
SCCF RECON,ioos:station:SCCF:13:1,2013-09-01T15:00:00Z,26.5255,-82.0032,2.63,5.51,1111122 
SCCF RECON,ioos:station:SCCF:13:1,2013-09-01T16:00:00Z,26.5255,-82.0032,2.65,5.9,1111122 
SCCF RECON,ioos:station:SCCF:13:1,2013-09-01T17:00:00Z,26.5255,-82.0032,2.605,5.38,1111122 
SCCF RECON,ioos:station:SCCF:13:1,2013-09-01T18:00:00Z,26.5255,-82.0032,2.524,5.5,1111122 
SCCF RECON,ioos:station:SCCF:13:1,2013-09-01T19:00:00Z,26.5255,-82.0032,2.39,5.14,1111122 
SCCF RECON,ioos:station:SCCF:13:1,2013-09-01T20:00:00Z,26.5255,-82.0032,2.285,5.6,1111122 
SCCF RECON,ioos:station:SCCF:13:1,2013-09-01T21:00:00Z,26.5255,-82.0032,2.201,5.82,1111122 
SCCF RECON,ioos:station:SCCF:13:1,2013-09-01T22:00:00Z,26.5255,-82.0032,2.161,5.81,1111122 
SCCF RECON,ioos:station:SCCF:13:1,2013-09-01T23:00:00Z,26.5255,-82.0032,2.114,6.06,1111122 
SCCF RECON,ioos:station:SCCF:13:1,2013-09-02T00:00:00Z,26.5255,-82.0032,2.143,5.78,1111122 
SCCF RECON,ioos:station:SCCF:13:1,2013-09-02T01:00:00Z,26.5255,-82.0032,2.26,5.63,1111122 
SCCF RECON,ioos:station:SCCF:13:1,2013-09-02T02:00:00Z,26.5255,-82.0032,2.37,5.62,1111122 
SCCF RECON,ioos:station:SCCF:13:1,2013-09-02T03:00:00Z,26.5255,-82.0032,2.446,5.34,1111122 
SCCF RECON,ioos:station:SCCF:13:1,2013-09-02T04:00:00Z,26.5255,-82.0032,2.5,4.95,1111122 
SCCF RECON,ioos:station:SCCF:13:1,2013-09-02T05:00:00Z,26.5255,-82.0032,2.54,5.67,1111122 
SCCF RECON,ioos:station:SCCF:13:1,2013-09-02T06:00:00Z,26.5255,-82.0032,2.54,5.71,1111122 
SCCF RECON,ioos:station:SCCF:13:1,2013-09-02T07:00:00Z,26.5255,-82.0032,2.48,5.78,1111122 
SCCF RECON,ioos:station:SCCF:13:1,2013-09-02T08:00:00Z,26.5255,-82.0032,2.4,5.51,1111122 
SCCF RECON,ioos:station:SCCF:13:1,2013-09-02T09:00:00Z,26.5255,-82.0032,2.32,5.17,1111122 
SCCF RECON,ioos:station:SCCF:13:1,2013-09-02T10:00:00Z,26.5255,-82.0032,2.27,5.04,1111122 
SCCF RECON,ioos:station:SCCF:13:1,2013-09-02T11:00:00Z,26.5255,-82.0032,2.31,5.09,1111122 
SCCF RECON,ioos:station:SCCF:13:1,2013-09-02T12:00:00Z,26.5255,-82.0032,2.421,5.06,1111122 
SCCF RECON,ioos:station:SCCF:13:1,2013-09-02T13:00:00Z,26.5255,-82.0032,2.531,4.82,1111122 
SCCF RECON,ioos:station:SCCF:13:1,2013-09-02T14:00:00Z,26.5255,-82.0032,2.594,5.0,1111122 
SCCF RECON,ioos:station:SCCF:13:1,2013-09-02T15:00:00Z,26.5255,-82.0032,2.643,5.29,1111122 
SCCF RECON,ioos:station:SCCF:13:1,2013-09-02T16:00:00Z,26.5255,-82.0032,2.66,5.35,1111122 
SCCF RECON,ioos:station:SCCF:13:1,2013-09-02T17:00:00Z,26.5255,-82.0032,2.637,5.5,1111122 
SCCF RECON,ioos:station:SCCF:13:1,2013-09-02T18:00:00Z,26.5255,-82.0032,2.569,5.18,1111122 
SCCF RECON,ioos:station:SCCF:13:1,2013-09-02T19:00:00Z,26.5255,-82.0032,2.44,4.91,1111122 
SCCF RECON,ioos:station:SCCF:13:1,2013-09-02T20:00:00Z,26.5255,-82.0032,2.355,5.4,1111122 
SCCF RECON,ioos:station:SCCF:13:1,2013-09-02T21:00:00Z,26.5255,-82.0032,2.26,5.47,1111122 
SCCF RECON,ioos:station:SCCF:13:1,2013-09-02T22:00:00Z,26.5255,-82.0032,2.14,5.57,1111122 
SCCF RECON,ioos:station:SCCF:13:1,2013-09-02T23:00:00Z,26.5255,-82.0032,2.079,5.46,1111122 
SCCF RECON,ioos:station:SCCF:13:1,2013-09-03T00:00:00Z,26.5255,-82.0032,2.1,5.29,1111122 
SCCF RECON,ioos:station:SCCF:13:1,2013-09-03T01:00:00Z,26.5255,-82.0032,2.209,5.3,1111122 
SCCF RECON,ioos:station:SCCF:13:1,2013-09-03T02:00:00Z,26.5255,-82.0032,2.33,5.31,1111122 
SCCF RECON,ioos:station:SCCF:13:1,2013-09-03T03:00:00Z,26.5255,-82.0032,2.42,5.28,1111122 
SCCF RECON,ioos:station:SCCF:13:1,2013-09-03T04:00:00Z,26.5255,-82.0032,2.47,4.66,1111122 
SCCF RECON,ioos:station:SCCF:13:1,2013-09-03T05:00:00Z,26.5255,-82.0032,2.53,4.88,1111122 
SCCF RECON,ioos:station:SCCF:13:1,2013-09-03T06:00:00Z,26.5255,-82.0032,2.53,4.98,1111122 
SCCF RECON,ioos:station:SCCF:13:1,2013-09-03T07:00:00Z,26.5255,-82.0032,2.48,4.95,1111122 
SCCF RECON,ioos:station:SCCF:13:1,2013-09-03T08:00:00Z,26.5255,-82.0032,2.407,4.77,1111122 
SCCF RECON,ioos:station:SCCF:13:1,2013-09-03T09:00:00Z,26.5255,-82.0032,2.32,4.81,1111122 
SCCF RECON,ioos:station:SCCF:13:1,2013-09-03T10:00:00Z,26.5255,-82.0032,2.25,4.83,1111122 
SCCF RECON,ioos:station:SCCF:13:1,2013-09-03T11:00:00Z,26.5255,-82.0032,2.22,4.85,1111122 
SCCF RECON,ioos:station:SCCF:13:1,2013-09-03T12:00:00Z,26.5255,-82.0032,2.298,4.99,1111122 
SCCF RECON,ioos:station:SCCF:13:1,2013-09-03T13:00:00Z,26.5255,-82.0032,2.43,4.39,1111122 
SCCF RECON,ioos:station:SCCF:13:1,2013-09-03T14:00:00Z,26.5255,-82.0032,2.53,4.21,1111122 
SCCF RECON,ioos:station:SCCF:13:1,2013-09-03T15:00:00Z,26.5255,-82.0032,2.61,4.37,1111122 
SCCF RECON,ioos:station:SCCF:13:1,2013-09-03T16:00:00Z,26.5255,-82.0032,2.67,4.8,1111122 
SCCF RECON,ioos:station:SCCF:13:1,2013-09-03T17:00:00Z,26.5255,-82.0032,2.68,4.92,1111122 
SCCF RECON,ioos:station:SCCF:13:1,2013-09-03T18:00:00Z,26.5255,-82.0032,2.62,4.74,1111122 
SCCF RECON,ioos:station:SCCF:13:1,2013-09-03T19:00:00Z,26.5255,-82.0032,2.51,5.0,1111122 
SCCF RECON,ioos:station:SCCF:13:1,2013-09-03T20:00:00Z,26.5255,-82.0032,2.369,4.52,1111122 
SCCF RECON,ioos:station:SCCF:13:1,2013-09-03T21:00:00Z,26.5255,-82.0032,2.263,5.12,1111122 
SCCF RECON,ioos:station:SCCF:13:1,2013-09-03T22:00:00Z,26.5255,-82.0032,2.175,5.03,1111122 
SCCF RECON,ioos:station:SCCF:13:1,2013-09-03T23:00:00Z,26.5255,-82.0032,2.1,5.22,1111122 
SCCF RECON,ioos:station:SCCF:13:1,2013-09-04T00:00:00Z,26.5255,-82.0032,2.06,5.09,1111122 
SCCF RECON,ioos:station:SCCF:13:1,2013-09-04T01:00:00Z,26.5255,-82.0032,2.14,5.06,1111122 
SCCF RECON,ioos:station:SCCF:13:1,2013-09-04T02:00:00Z,26.5255,-82.0032,2.28,5.01,1111122 
SCCF RECON,ioos:station:SCCF:13:1,2013-09-04T03:00:00Z,26.5255,-82.0032,2.38,4.84,1111122 
SCCF RECON,ioos:station:SCCF:13:1,2013-09-04T04:00:00Z,26.5255,-82.0032,2.45,4.5,1111122 
SCCF RECON,ioos:station:SCCF:13:1,2013-09-04T05:00:00Z,26.5255,-82.0032,2.51,4.44,1111122 
SCCF RECON,ioos:station:SCCF:13:1,2013-09-04T06:00:00Z,26.5255,-82.0032,2.55,4.79,1111122 
SCCF RECON,ioos:station:SCCF:13:1,2013-09-04T07:00:00Z,26.5255,-82.0032,2.484,4.73,1111122 
SCCF RECON,ioos:station:SCCF:13:1,2013-09-04T08:00:00Z,26.5255,-82.0032,2.368,4.58,1111122 
SCCF RECON,ioos:station:SCCF:13:1,2013-09-04T09:00:00Z,26.5255,-82.0032,2.28,4.58,1111122 
SCCF RECON,ioos:station:SCCF:13:1,2013-09-04T10:00:00Z,26.5255,-82.0032,2.23,4.63,1111122 
SCCF RECON,ioos:station:SCCF:13:1,2013-09-04T11:00:00Z,26.5255,-82.0032,2.18,4.79,1111122 
SCCF RECON,ioos:station:SCCF:13:1,2013-09-04T12:00:00Z,26.5255,-82.0032,2.18,4.89,1111122 
SCCF RECON,ioos:station:SCCF:13:1,2013-09-04T13:00:00Z,26.5255,-82.0032,2.29,4.89,1111122 
SCCF RECON,ioos:station:SCCF:13:1,2013-09-04T14:00:00Z,26.5255,-82.0032,2.437,4.73,1111122 
SCCF RECON,ioos:station:SCCF:13:1,2013-09-04T15:00:00Z,26.5255,-82.0032,2.54,4.02,1111122 
SCCF RECON,ioos:station:SCCF:13:1,2013-09-04T16:00:00Z,26.5255,-82.0032,2.585,4.42,1111122 
SCCF RECON,ioos:station:SCCF:13:1,2013-09-04T17:00:00Z,26.5255,-82.0032,2.63,4.76,1111122 
SCCF RECON,ioos:station:SCCF:13:1,2013-09-04T18:00:00Z,26.5255,-82.0032,2.65,4.88,1111122 
SCCF RECON,ioos:station:SCCF:13:1,2013-09-04T19:00:00Z,26.5255,-82.0032,2.65,4.97,1111122 
SCCF RECON,ioos:station:SCCF:13:1,2013-09-04T20:00:00Z,26.5255,-82.0032,2.48,4.81,1111122 
SCCF RECON,ioos:station:SCCF:13:1,2013-09-04T21:00:00Z,26.5255,-82.0032,2.35,4.77,1111122 
SCCF RECON,ioos:station:SCCF:13:1,2013-09-04T22:00:00Z,26.5255,-82.0032,2.248,5.14,1111122 
SCCF RECON,ioos:station:SCCF:13:1,2013-09-04T23:00:00Z,26.5255,-82.0032,2.16,4.96,1111122 
SCCF RECON,ioos:station:SCCF:13:1,2013-09-05T00:00:00Z,26.5255,-82.0032,2.1,5.05,1111122 
SCCF RECON,ioos:station:SCCF:13:1,2013-09-05T01:00:00Z,26.5255,-82.0032,2.105,5.09,1111122 
SCCF RECON,ioos:station:SCCF:13:1,2013-09-05T02:00:00Z,26.5255,-82.0032,2.211,5.06,1111122 
SCCF RECON,ioos:station:SCCF:13:1,2013-09-05T03:00:00Z,26.5255,-82.0032,2.36,4.73,1111122 
SCCF RECON,ioos:station:SCCF:13:1,2013-09-05T04:00:00Z,26.5255,-82.0032,2.44,4.73,1111122 
SCCF RECON,ioos:station:SCCF:13:1,2013-09-05T05:00:00Z,26.5255,-82.0032,2.48,4.52,1111122 
SCCF RECON,ioos:station:SCCF:13:1,2013-09-05T06:00:00Z,26.5255,-82.0032,2.49,4.53,1111122 
SCCF RECON,ioos:station:SCCF:13:1,2013-09-05T07:00:00Z,26.5255,-82.0032,2.46,4.32,1111122 
SCCF RECON,ioos:station:SCCF:13:1,2013-09-05T08:00:00Z,26.5255,-82.0032,2.388,4.31,1111122 
SCCF RECON,ioos:station:SCCF:13:1,2013-09-05T09:00:00Z,26.5255,-82.0032,2.28,4.46,1111122 
SCCF RECON,ioos:station:SCCF:13:1,2013-09-05T10:00:00Z,26.5255,-82.0032,2.2,4.83,1111122 
SCCF RECON,ioos:station:SCCF:13:1,2013-09-05T11:00:00Z,26.5255,-82.0032,2.13,4.99,1111122 
SCCF RECON,ioos:station:SCCF:13:1,2013-09-05T12:00:00Z,26.5255,-82.0032,2.08,5.11,1111122 
SCCF RECON,ioos:station:SCCF:13:1,2013-09-05T13:00:00Z,26.5255,-82.0032,2.11,5.21,1111122 
SCCF RECON,ioos:station:SCCF:13:1,2013-09-05T14:00:00Z,26.5255,-82.0032,2.286,5.15,1111122 
SCCF RECON,ioos:station:SCCF:13:1,2013-09-05T15:00:00Z,26.5255,-82.0032,2.437,5.12,1111122 
SCCF RECON,ioos:station:SCCF:13:1,2013-09-05T16:00:00Z,26.5255,-82.0032,2.52,4.34,1111122 
SCCF RECON,ioos:station:SCCF:13:1,2013-09-05T17:00:00Z,26.5255,-82.0032,2.59,4.72,1111122 
SCCF RECON,ioos:station:SCCF:13:1,2013-09-05T18:00:00Z,26.5255,-82.0032,2.63,4.96,1111122 
SCCF RECON,ioos:station:SCCF:13:1,2013-09-05T19:00:00Z,26.5255,-82.0032,2.62,5.04,1111122 
SCCF RECON,ioos:station:SCCF:13:1,2013-09-05T20:00:00Z,26.5255,-82.0032,2.54,4.75,1111122 
SCCF RECON,ioos:station:SCCF:13:1,2013-09-05T21:00:00Z,26.5255,-82.0032,2.412,4.88,1111122 
SCCF RECON,ioos:station:SCCF:13:1,2013-09-05T22:00:00Z,26.5255,-82.0032,2.308,4.81,1111122 
SCCF RECON,ioos:station:SCCF:13:1,2013-09-05T23:00:00Z,26.5255,-82.0032,2.208,5.33,1111122 
SCCF RECON,ioos:station:SCCF:13:1,2013-09-06T00:00:00Z,26.5255,-82.0032,2.15,5.26,1111122 
SCCF RECON,ioos:station:SCCF:13:1,2013-09-06T01:00:00Z,26.5255,-82.0032,2.12,5.12,1111122 
SCCF RECON,ioos:station:SCCF:13:1,2013-09-06T02:00:00Z,26.5255,-82.0032,2.208,5.19,1111122 
SCCF RECON,ioos:station:SCCF:13:1,2013-09-06T03:00:00Z,26.5255,-82.0032,2.349,5.19,1111122 
SCCF RECON,ioos:station:SCCF:13:1,2013-09-06T04:00:00Z,26.5255,-82.0032,2.45,4.71,1111122 
SCCF RECON,ioos:station:SCCF:13:1,2013-09-06T05:00:00Z,26.5255,-82.0032,2.52,4.53,1111122 
SCCF RECON,ioos:station:SCCF:13:1,2013-09-06T06:00:00Z,26.5255,-82.0032,2.57,4.65,1111122 
SCCF RECON,ioos:station:SCCF:13:1,2013-09-06T07:00:00Z,26.5255,-82.0032,2.58,4.76,1111122 
SCCF RECON,ioos:station:SCCF:13:1,2013-09-06T08:00:00Z,26.5255,-82.0032,2.52,4.69,1111122 
SCCF RECON,ioos:station:SCCF:13:1,2013-09-06T09:00:00Z,26.5255,-82.0032,2.39,4.63,1111122 
SCCF RECON,ioos:station:SCCF:13:1,2013-09-06T10:00:00Z,26.5255,-82.0032,2.26,4.54,1111122 
SCCF RECON,ioos:station:SCCF:13:1,2013-09-06T11:00:00Z,26.5255,-82.0032,2.18,4.66,1111122 
SCCF RECON,ioos:station:SCCF:13:1,2013-09-06T12:00:00Z,26.5255,-82.0032,2.12,4.7,1111122 
SCCF RECON,ioos:station:SCCF:13:1,2013-09-06T13:00:00Z,26.5255,-82.0032,2.1,4.88,1111122 
SCCF RECON,ioos:station:SCCF:13:1,2013-09-06T14:00:00Z,26.5255,-82.0032,2.16,4.99,1111122 
SCCF RECON,ioos:station:SCCF:13:1,2013-09-06T15:00:00Z,26.5255,-82.0032,2.311,4.99,1111122 
SCCF RECON,ioos:station:SCCF:13:1,2013-09-06T16:00:00Z,26.5255,-82.0032,2.44,4.66,1111122 
SCCF RECON,ioos:station:SCCF:13:1,2013-09-06T17:00:00Z,26.5255,-82.0032,2.51,4.4,1111122 
SCCF RECON,ioos:station:SCCF:13:1,2013-09-06T18:00:00Z,26.5255,-82.0032,2.56,4.73,1111122 
SCCF RECON,ioos:station:SCCF:13:1,2013-09-06T19:00:00Z,26.5255,-82.0032,2.577,5.14,1111122 
SCCF RECON,ioos:station:SCCF:13:1,2013-09-06T20:00:00Z,26.5255,-82.0032,2.54,5.25,1111122 
SCCF RECON,ioos:station:SCCF:13:1,2013-09-06T21:00:00Z,26.5255,-82.0032,2.44,5.04,1111122 
SCCF RECON,ioos:station:SCCF:13:1,2013-09-06T22:00:00Z,26.5255,-82.0032,2.3,4.76,1111122 
SCCF RECON,ioos:station:SCCF:13:1,2013-09-06T23:00:00Z,26.5255,-82.0032,2.21,4.9,1111122 
SCCF RECON,ioos:station:SCCF:13:1,2013-09-07T00:00:00Z,26.5255,-82.0032,2.19,5.02,1111122 
SCCF RECON,ioos:station:SCCF:13:1,2013-09-07T01:00:00Z,26.5255,-82.0032,2.16,5.27,1111122 
SCCF RECON,ioos:station:SCCF:13:1,2013-09-07T02:00:00Z,26.5255,-82.0032,2.11,5.28,1111122 
SCCF RECON,ioos:station:SCCF:13:1,2013-09-07T03:00:00Z,26.5255,-82.0032,2.2,5.37,1111122 
SCCF RECON,ioos:station:SCCF:13:1,2013-09-07T04:00:00Z,26.5255,-82.0032,2.28,5.48,1111122 
SCCF RECON,ioos:station:SCCF:13:1,2013-09-07T05:00:00Z,26.5255,-82.0032,2.4,5.19,1111122 
SCCF RECON,ioos:station:SCCF:13:1,2013-09-07T06:00:00Z,26.5255,-82.0032,2.45,4.85,1111122 
SCCF RECON,ioos:station:SCCF:13:1,2013-09-07T07:00:00Z,26.5255,-82.0032,2.51,4.97,1111122 
SCCF RECON,ioos:station:SCCF:13:1,2013-09-07T08:00:00Z,26.5255,-82.0032,2.51,5.17,1111122 
SCCF RECON,ioos:station:SCCF:13:1,2013-09-07T09:00:00Z,26.5255,-82.0032,2.42,5.12,1111122 
SCCF RECON,ioos:station:SCCF:13:1,2013-09-07T10:00:00Z,26.5255,-82.0032,2.26,4.93,1111122 
SCCF RECON,ioos:station:SCCF:13:1,2013-09-07T11:00:00Z,26.5255,-82.0032,2.22,4.97,1111122 
SCCF RECON,ioos:station:SCCF:13:1,2013-09-07T12:00:00Z,26.5255,-82.0032,2.13,5.19,1111122 
SCCF RECON,ioos:station:SCCF:13:1,2013-09-07T13:00:00Z,26.5255,-82.0032,2.041,5.33,1111122 
SCCF RECON,ioos:station:SCCF:13:1,2013-09-07T14:00:00Z,26.5255,-82.0032,2.034,5.46,1111122 
SCCF RECON,ioos:station:SCCF:13:1,2013-09-07T15:00:00Z,26.5255,-82.0032,2.22,5.46,1111122 
SCCF RECON,ioos:station:SCCF:13:1,2013-09-07T16:00:00Z,26.5255,-82.0032,2.37,5.68,1111122 
SCCF RECON,ioos:station:SCCF:13:1,2013-09-07T17:00:00Z,26.5255,-82.0032,2.42,5.05,1111122 
SCCF RECON,ioos:station:SCCF:13:1,2013-09-07T18:00:00Z,26.5255,-82.0032,2.47,4.98,1111122 
SCCF RECON,ioos:station:SCCF:13:1,2013-09-07T19:00:00Z,26.5255,-82.0032,2.555,5.3,1111122 
SCCF RECON,ioos:station:SCCF:13:1,2013-09-07T20:00:00Z,26.5255,-82.0032,2.54,5.6,1111122 
SCCF RECON,ioos:station:SCCF:13:1,2013-09-07T21:00:00Z,26.5255,-82.0032,2.49,5.44,1111122 
SCCF RECON,ioos:station:SCCF:13:1,2013-09-07T22:00:00Z,26.5255,-82.0032,2.379,5.41,1111122 
SCCF RECON,ioos:station:SCCF:13:1,2013-09-07T23:00:00Z,26.5255,-82.0032,2.284,5.55,1111122 
SCCF RECON,ioos:station:SCCF:13:1,2013-09-08T00:00:00Z,26.5255,-82.0032,2.209,5.56,1111122 
SCCF RECON,ioos:station:SCCF:13:1,2013-09-08T01:00:00Z,26.5255,-82.0032,2.14,5.57,1111122 
SCCF RECON,ioos:station:SCCF:13:1,2013-09-08T02:00:00Z,26.5255,-82.0032,2.119,5.6,1111122 
SCCF RECON,ioos:station:SCCF:13:1,2013-09-08T03:00:00Z,26.5255,-82.0032,2.19,5.59,1111122 
SCCF RECON,ioos:station:SCCF:13:1,2013-09-08T04:00:00Z,26.5255,-82.0032,2.327,5.62,1111122 
SCCF RECON,ioos:station:SCCF:13:1,2013-09-08T05:00:00Z,26.5255,-82.0032,2.44,5.24,1111122 
SCCF RECON,ioos:station:SCCF:13:1,2013-09-08T06:00:00Z,26.5255,-82.0032,2.499,5.02,1111122 
SCCF RECON,ioos:station:SCCF:13:1,2013-09-08T07:00:00Z,26.5255,-82.0032,2.54,5.09,1111122 
SCCF RECON,ioos:station:SCCF:13:1,2013-09-08T08:00:00Z,26.5255,-82.0032,2.57,5.14,1111122 
SCCF RECON,ioos:station:SCCF:13:1,2013-09-08T09:00:00Z,26.5255,-82.0032,2.53,5.01,1111122 
SCCF RECON,ioos:station:SCCF:13:1,2013-09-08T10:00:00Z,26.5255,-82.0032,2.375,4.96,1111122 
SCCF RECON,ioos:station:SCCF:13:1,2013-09-08T11:00:00Z,26.5255,-82.0032,2.25,4.99,1111122 
SCCF RECON,ioos:station:SCCF:13:1,2013-09-08T12:00:00Z,26.5255,-82.0032,2.17,5.18,1111122 
SCCF RECON,ioos:station:SCCF:13:1,2013-09-08T13:00:00Z,26.5255,-82.0032,2.09,5.24,1111122 
SCCF RECON,ioos:station:SCCF:13:1,2013-09-08T14:00:00Z,26.5255,-82.0032,2.05,5.51,1111122 
SCCF RECON,ioos:station:SCCF:13:1,2013-09-08T15:00:00Z,26.5255,-82.0032,2.089,5.6,1111122 
SCCF RECON,ioos:station:SCCF:13:1,2013-09-08T16:00:00Z,26.5255,-82.0032,2.22,5.67,1111122 
SCCF RECON,ioos:station:SCCF:13:1,2013-09-08T17:00:00Z,26.5255,-82.0032,2.35,5.71,1111122 
SCCF RECON,ioos:station:SCCF:13:1,2013-09-08T18:00:00Z,26.5255,-82.0032,2.42,5.23,1111122 
SCCF RECON,ioos:station:SCCF:13:1,2013-09-08T19:00:00Z,26.5255,-82.0032,2.47,4.92,1111122 
SCCF RECON,ioos:station:SCCF:13:1,2013-09-08T20:00:00Z,26.5255,-82.0032,2.49,5.61,1111122 
SCCF RECON,ioos:station:SCCF:13:1,2013-09-08T21:00:00Z,26.5255,-82.0032,2.46,5.79,1111122 
SCCF RECON,ioos:station:SCCF:13:1,2013-09-08T22:00:00Z,26.5255,-82.0032,2.432,5.36,1111122 
SCCF RECON,ioos:station:SCCF:13:1,2013-09-08T23:00:00Z,26.5255,-82.0032,2.36,5.59,1111122 
SCCF RECON,ioos:station:SCCF:13:1,2013-09-09T00:00:00Z,26.5255,-82.0032,2.259,5.58,1111122 
SCCF RECON,ioos:station:SCCF:13:1,2013-09-09T01:00:00Z,26.5255,-82.0032,2.199,5.56,1111122 
SCCF RECON,ioos:station:SCCF:13:1,2013-09-09T02:00:00Z,26.5255,-82.0032,2.18,5.59,1111122 
SCCF RECON,ioos:station:SCCF:13:1,2013-09-09T03:00:00Z,26.5255,-82.0032,2.19,5.68,1111122 
SCCF RECON,ioos:station:SCCF:13:1,2013-09-09T04:00:00Z,26.5255,-82.0032,2.32,5.68,1111122 
SCCF RECON,ioos:station:SCCF:13:1,2013-09-09T05:00:00Z,26.5255,-82.0032,2.44,5.28,1111122 
SCCF RECON,ioos:station:SCCF:13:1,2013-09-09T06:00:00Z,26.5255,-82.0032,2.5,4.84,1111122 
SCCF RECON,ioos:station:SCCF:13:1,2013-09-09T07:00:00Z,26.5255,-82.0032,2.55,4.96,1111122 
SCCF RECON,ioos:station:SCCF:13:1,2013-09-09T08:00:00Z,26.5255,-82.0032,2.61,5.15,1111122 
SCCF RECON,ioos:station:SCCF:13:1,2013-09-09T09:00:00Z,26.5255,-82.0032,2.6,5.16,1111122 
SCCF RECON,ioos:station:SCCF:13:1,2013-09-09T10:00:00Z,26.5255,-82.0032,2.5,4.98,1111122 
SCCF RECON,ioos:station:SCCF:13:1,2013-09-09T11:00:00Z,26.5255,-82.0032,2.37,4.82,1111122 
SCCF RECON,ioos:station:SCCF:13:1,2013-09-09T12:00:00Z,26.5255,-82.0032,2.26,5.33,1111122 
SCCF RECON,ioos:station:SCCF:13:1,2013-09-09T13:00:00Z,26.5255,-82.0032,2.179,5.31,1111122 
SCCF RECON,ioos:station:SCCF:13:1,2013-09-09T14:00:00Z,26.5255,-82.0032,2.096,5.54,1111122 
SCCF RECON,ioos:station:SCCF:13:1,2013-09-09T15:00:00Z,26.5255,-82.0032,2.057,5.58,1111122 
SCCF RECON,ioos:station:SCCF:13:1,2013-09-09T16:00:00Z,26.5255,-82.0032,2.1,5.7,1111122 
SCCF RECON,ioos:station:SCCF:13:1,2013-09-09T17:00:00Z,26.5255,-82.0032,2.23,5.68,1111122 
SCCF RECON,ioos:station:SCCF:13:1,2013-09-09T18:00:00Z,26.5255,-82.0032,2.34,5.72,1111122 
SCCF RECON,ioos:station:SCCF:13:1,2013-09-09T19:00:00Z,26.5255,-82.0032,2.4,5.57,1111122 
SCCF RECON,ioos:station:SCCF:13:1,2013-09-09T20:00:00Z,26.5255,-82.0032,2.428,4.88,1111122 
SCCF RECON,ioos:station:SCCF:13:1,2013-09-09T21:00:00Z,26.5255,-82.0032,2.45,5.26,1111122 
SCCF RECON,ioos:station:SCCF:13:1,2013-09-09T22:00:00Z,26.5255,-82.0032,2.463,5.18,1111122 
SCCF RECON,ioos:station:SCCF:13:1,2013-09-09T23:00:00Z,26.5255,-82.0032,2.42,5.21,1111122 
SCCF RECON,ioos:station:SCCF:13:1,2013-09-10T00:00:00Z,26.5255,-82.0032,2.33,5.35,1111122 
SCCF RECON,ioos:station:SCCF:13:1,2013-09-10T01:00:00Z,26.5255,-82.0032,2.249,5.65,1111122 
SCCF RECON,ioos:station:SCCF:13:1,2013-09-10T02:00:00Z,26.5255,-82.0032,2.2,5.78,1111122 
SCCF RECON,ioos:station:SCCF:13:1,2013-09-10T03:00:00Z,26.5255,-82.0032,2.191,5.91,1111122 
SCCF RECON,ioos:station:SCCF:13:1,2013-09-10T04:00:00Z,26.5255,-82.0032,2.22,5.97,1111122 
SCCF RECON,ioos:station:SCCF:13:1,2013-09-10T05:00:00Z,26.5255,-82.0032,2.342,5.79,1111122 
SCCF RECON,ioos:station:SCCF:13:1,2013-09-10T06:00:00Z,26.5255,-82.0032,2.47,4.79,1111122 
SCCF RECON,ioos:station:SCCF:13:1,2013-09-10T07:00:00Z,26.5255,-82.0032,2.531,4.92,1111122 
SCCF RECON,ioos:station:SCCF:13:1,2013-09-10T08:00:00Z,26.5255,-82.0032,2.58,5.02,1111122 
SCCF RECON,ioos:station:SCCF:13:1,2013-09-10T09:00:00Z,26.5255,-82.0032,2.59,5.01,1111122 
SCCF RECON,ioos:station:SCCF:13:1,2013-09-10T10:00:00Z,26.5255,-82.0032,2.55,5.03,1111122 
SCCF RECON,ioos:station:SCCF:13:1,2013-09-10T11:00:00Z,26.5255,-82.0032,2.44,4.95,1111122 
SCCF RECON,ioos:station:SCCF:13:1,2013-09-10T12:00:00Z,26.5255,-82.0032,2.31,4.88,1111122 
SCCF RECON,ioos:station:SCCF:13:1,2013-09-10T13:00:00Z,26.5255,-82.0032,2.24,5.57,1111122 
SCCF RECON,ioos:station:SCCF:13:1,2013-09-10T14:00:00Z,26.5255,-82.0032,2.15,5.66,1111122 
SCCF RECON,ioos:station:SCCF:13:1,2013-09-10T15:00:00Z,26.5255,-82.0032,2.072,5.82,1111122 
SCCF RECON,ioos:station:SCCF:13:1,2013-09-10T16:00:00Z,26.5255,-82.0032,2.03,5.93,1111122 
SCCF RECON,ioos:station:SCCF:13:1,2013-09-10T17:00:00Z,26.5255,-82.0032,2.09,6.04,1111122 
SCCF RECON,ioos:station:SCCF:13:1,2013-09-10T18:00:00Z,26.5255,-82.0032,2.217,6.1,1111122 
SCCF RECON,ioos:station:SCCF:13:1,2013-09-10T19:00:00Z,26.5255,-82.0032,2.3,6.14,1111122 
SCCF RECON,ioos:station:SCCF:13:1,2013-09-10T20:00:00Z,26.5255,-82.0032,2.36,5.59,1111122 
SCCF RECON,ioos:station:SCCF:13:1,2013-09-10T21:00:00Z,26.5255,-82.0032,2.4,5.31,1111122 
SCCF RECON,ioos:station:SCCF:13:1,2013-09-10T22:00:00Z,26.5255,-82.0032,2.446,5.64,1111122 
SCCF RECON,ioos:station:SCCF:13:1,2013-09-10T23:00:00Z,26.5255,-82.0032,2.42,5.75,1111122 
SCCF RECON,ioos:station:SCCF:13:1,2013-09-11T00:00:00Z,26.5255,-82.0032,2.389,5.69,1111122 
SCCF RECON,ioos:station:SCCF:13:1,2013-09-11T01:00:00Z,26.5255,-82.0032,2.31,5.73,1111122 
SCCF RECON,ioos:station:SCCF:13:1,2013-09-11T02:00:00Z,26.5255,-82.0032,2.27,5.49,1111122 
SCCF RECON,ioos:station:SCCF:13:1,2013-09-11T03:00:00Z,26.5255,-82.0032,2.25,6.05,1111122 
SCCF RECON,ioos:station:SCCF:13:1,2013-09-11T04:00:00Z,26.5255,-82.0032,2.22,6.24,1111122 
SCCF RECON,ioos:station:SCCF:13:1,2013-09-11T05:00:00Z,26.5255,-82.0032,2.27,5.98,1111122 
SCCF RECON,ioos:station:SCCF:13:1,2013-09-11T06:00:00Z,26.5255,-82.0032,2.41,5.4,1111122 
SCCF RECON,ioos:station:SCCF:13:1,2013-09-11T07:00:00Z,26.5255,-82.0032,2.5,5.32,1111122 
SCCF RECON,ioos:station:SCCF:13:1,2013-09-11T08:00:00Z,26.5255,-82.0032,2.52,5.36,1111122 
SCCF RECON,ioos:station:SCCF:13:1,2013-09-11T09:00:00Z,26.5255,-82.0032,2.561,5.09,1111122 
SCCF RECON,ioos:station:SCCF:13:1,2013-09-11T10:00:00Z,26.5255,-82.0032,2.6,5.18,1111122 
SCCF RECON,ioos:station:SCCF:13:1,2013-09-11T11:00:00Z,26.5255,-82.0032,2.591,5.07,1111122 
SCCF RECON,ioos:station:SCCF:13:1,2013-09-11T12:00:00Z,26.5255,-82.0032,2.48,5.0,1111122 
SCCF RECON,ioos:station:SCCF:13:1,2013-09-11T13:00:00Z,26.5255,-82.0032,2.34,4.89,1111122 
SCCF RECON,ioos:station:SCCF:13:1,2013-09-11T14:00:00Z,26.5255,-82.0032,2.24,5.93,1111122 
SCCF RECON,ioos:station:SCCF:13:1,2013-09-11T15:00:00Z,26.5255,-82.0032,2.159,5.96,1111122 
SCCF RECON,ioos:station:SCCF:13:1,2013-09-11T16:00:00Z,26.5255,-82.0032,2.078,6.13,1111122 
SCCF RECON,ioos:station:SCCF:13:1,2013-09-11T17:00:00Z,26.5255,-82.0032,2.039,6.08,1111122 
SCCF RECON,ioos:station:SCCF:13:1,2013-09-11T18:00:00Z,26.5255,-82.0032,2.06,6.11,1111122 
SCCF RECON,ioos:station:SCCF:13:1,2013-09-11T19:00:00Z,26.5255,-82.0032,2.22,6.16,1111122 
SCCF RECON,ioos:station:SCCF:13:1,2013-09-11T20:00:00Z,26.5255,-82.0032,2.21,6.17,1111122 
SCCF RECON,ioos:station:SCCF:13:1,2013-09-11T21:00:00Z,26.5255,-82.0032,2.313,6.17,1111122 